FW8369 Weather Reports


time (UTC)temp
C
wind
direction
speed
KPH
gust
KPH
rain 1hr
cm
rain 24hr
cm
rain mn
cm
humidity
%
barometer
mb
20260507205404 25 310 0.0 0.0 0.00 0.00 0.00 90 1010.9
20260507204904 25 310 0.0 0.0 0.00 0.00 0.00 90 1010.8
20260507204404 25 310 0.0 0.0 0.00 0.00 0.00 90 1010.6
20260507203904 25 311 0.0 0.0 0.00 0.00 0.00 91 1010.6
20260507202904 25 311 0.0 0.0 0.00 0.00 0.00 91 1010.6
20260507202403 25 311 0.0 0.0 0.00 0.00 0.00 91 1010.6
20260507201904 25 332 0.0 0.0 0.00 0.00 0.00 91 1010.5
20260507201404 25 332 0.0 0.0 0.00 0.00 0.00 92 1010.5
20260507200904 25 333 0.0 0.0 0.00 0.00 0.00 92 1010.4
20260507200404 25 333 0.0 0.0 0.00 0.00 0.00 92 1010.3
20260507195404 25 333 0.0 0.0 0.00 0.00 0.00 91 1010.3
20260507194903 25 333 0.0 0.0 0.00 0.00 0.00 91 1010.2
20260507194404 25 333 0.0 0.0 0.00 0.00 0.00 91 1010.2
20260507193904 25 333 0.0 0.0 0.00 0.00 0.00 91 1010.1
20260507193405 25 338 0.0 0.0 0.00 0.00 0.00 91 1010.1
20260507192904 25 339 0.0 1.6 0.00 0.00 0.00 91 1010.1
20260507192403 25 339 0.0 0.0 0.00 0.00 0.00 91 1010.1
20260507191904 25 21 1.6 4.8 0.00 0.00 0.00 91 1010.1
20260507190904 25 279 0.0 0.0 0.00 0.00 0.00 90 1010.1
20260507190404 25 279 0.0 0.0 0.00 0.00 0.00 90 1010.2
20260507185904 25 248 0.0 3.2 0.00 0.00 0.00 90 1010.3
20260507185404 25 311 0.0 1.6 0.00 0.00 0.00 90 1010.4
20260507184903 25 335 0.0 1.6 0.00 0.00 0.00 90 1010.4
20260507184404 25 335 0.0 1.6 0.00 0.00 0.00 89 1010.5
20260507183904 25 335 0.0 1.6 0.00 0.00 0.00 89 1010.5
20260507183404 25 336 0.0 1.6 0.00 0.00 0.00 89 1010.6
20260507182904 25 337 0.0 1.6 0.00 0.00 0.00 89 1010.6
20260507182404 25 338 0.0 1.6 0.00 0.00 0.00 89 1010.7
20260507181905 25 337 1.6 1.6 0.00 0.00 0.00 89 1010.8
20260507181403 25 323 0.0 0.0 0.00 0.00 0.00 89 1011.0
20260507180903 25 323 0.0 0.0 0.00 0.00 0.00 89 1011.1
20260507180404 25 323 0.0 0.0 0.00 0.00 0.00 90 1011.1
20260507175904 25 323 0.0 0.0 0.00 0.00 0.00 90 1011.3
20260507174904 25 333 0.0 1.6 0.00 0.00 0.00 90 1011.1
20260507173904 25 358 0.0 3.2 0.00 0.00 0.00 90 1011.3
20260507173403 25 11 1.6 4.8 0.00 0.00 0.00 90 1011.4
20260507172905 25 315 1.6 3.2 0.00 0.00 0.00 90 1011.4
20260507171404 25 305 0.0 3.2 0.00 0.00 0.00 90 1011.4
20260507170904 25 301 1.6 3.2 0.00 0.00 0.00 90 1011.4
20260507170404 25 54 0.0 4.8 0.00 0.00 0.00 90 1011.4
20260507165904 25 56 1.6 4.8 0.00 0.00 0.00 90 1011.5
20260507164403 25 53 3.2 4.8 0.00 0.00 0.00 89 1011.5
20260507163904 25 31 1.6 3.2 0.00 0.00 0.00 89 1011.4
20260507163404 25 327 0.0 1.6 0.00 0.00 0.00 89 1011.5
20260507162904 25 347 0.0 0.0 0.00 0.00 0.00 90 1011.5
20260507162404 25 353 0.0 1.6 0.00 0.00 0.00 90 1011.6
20260507161904 25 58 0.0 4.8 0.00 0.00 0.00 90 1011.7
20260507161404 25 355 0.0 3.2 0.00 0.00 0.00 90 1011.9
20260507160904 25 296 1.6 3.2 0.00 0.00 0.00 90 1011.9
20260507155904 25 59 3.2 4.8 0.00 0.00 0.00 90 1011.8
20260507155404 25 11 1.6 4.8 0.00 0.00 0.00 90 1011.8
20260507154404 25 57 1.6 4.8 0.00 0.00 0.00 90 1011.8
20260507153904 25 325 1.6 4.8 0.00 0.00 0.00 90 1011.9
20260507153404 25 34 1.6 4.8 0.00 0.00 0.00 90 1011.8
20260507152404 25 4 0.0 3.2 0.00 0.00 0.00 90 1012.0
20260507151904 25 43 4.8 8.0 0.00 0.00 0.00 90 1012.1
20260507145904 25 335 0.0 4.8 0.00 0.00 0.00 90 1012.0
20260507144904 25 9 4.8 9.7 0.00 0.00 0.00 90 1012.0
20260507144404 25 343 1.6 4.8 0.00 0.00 0.00 90 1011.9
20260507143904 25 325 0.0 3.2 0.00 0.00 0.00 90 1011.9
20260507143404 25 17 1.6 4.8 0.00 0.00 0.00 90 1011.8
20260507142904 25 50 1.6 8.0 0.00 0.00 0.00 90 1011.8
20260507142404 25 298 0.0 3.2 0.00 0.00 0.00 90 1011.7
20260507141904 25 324 0.0 3.2 0.00 0.00 0.00 90 1011.6
20260507141404 25 308 1.6 4.8 0.00 0.00 0.00 90 1011.6
20260507140904 25 60 3.2 8.0 0.00 0.00 0.00 90 1011.6
20260507140404 25 297 1.6 4.8 0.00 0.00 0.00 90 1011.6
20260507135905 25 312 3.2 4.8 0.00 0.00 0.00 89 1011.6
20260507135404 25 313 1.6 3.2 0.00 0.00 0.00 90 1011.5
20260507134904 25 31 1.6 4.8 0.00 0.00 0.00 89 1011.4
20260507134404 25 24 0.0 4.8 0.00 0.00 0.00 89 1011.4
20260507133904 25 60 1.6 4.8 0.00 0.00 0.00 89 1011.2
20260507133404 25 52 1.6 4.8 0.00 0.00 0.00 88 1011.1
20260507132404 26 350 0.0 1.6 0.00 0.00 0.00 88 1011.0
20260507131404 26 335 0.0 1.6 0.00 0.00 0.00 88 1011.0
20260507130904 26 31 0.0 1.6 0.00 0.00 0.00 88 1010.9
20260507130405 26 39 1.6 3.2 0.00 0.00 0.00 88 1010.9
20260507125904 26 9 0.0 0.0 0.00 0.00 0.00 88 1010.9
20260507125403 26 52 0.0 4.8 0.00 0.00 0.00 88 1010.9
20260507124904 26 1 1.6 4.8 0.00 0.00 0.00 87 1010.8
20260507124405 26 340 1.6 3.2 0.00 0.00 0.00 87 1010.7
20260507123404 26 12 0.0 0.0 0.00 0.00 0.00 87 1010.5
20260507122904 26 45 0.0 4.8 0.00 0.00 0.00 87 1010.6
20260507122404 26 57 1.6 4.8 0.00 0.00 0.00 88 1010.5
20260507121904 26 46 3.2 4.8 0.00 0.00 0.00 87 1010.5
20260507121404 26 341 3.2 4.8 0.00 0.00 0.00 87 1010.5
20260507120904 26 41 0.0 3.2 0.00 0.00 0.00 86 1010.4
20260507120404 26 356 0.0 0.0 0.00 0.00 0.00 87 1010.4
20260507115904 26 7 1.6 4.8 0.00 0.00 0.00 87 1010.3
20260507115404 26 3 1.6 4.8 0.00 0.00 0.00 86 1010.3
20260507114404 26 345 0.0 1.6 0.00 0.00 0.00 86 1010.0
20260507113904 26 0 0.0 1.6 0.00 0.00 0.00 86 1010.1
20260507113404 26 17 0.0 4.8 0.00 0.00 0.00 86 1010.1
20260507112904 26 3 1.6 4.8 0.00 0.00 0.00 86 1010.1
20260507112404 26 37 1.6 4.8 0.00 0.00 0.00 86 1010.1
20260507111905 26 6 0.0 3.2 0.00 0.00 0.00 86 1010.0
20260507110904 26 337 0.0 1.6 0.00 0.00 0.00 86 1010.0
20260507110404 26 356 3.2 8.0 0.00 0.00 0.00 86 1010.0
20260507105904 27 62 4.8 8.0 0.00 0.00 0.00 85 1009.9
20260507105404 27 349 0.0 1.6 0.00 0.00 0.00 84 1009.9
20260507104904 27 325 0.0 1.6 0.00 0.00 0.00 84 1009.8
20260507103904 27 52 3.2 4.8 0.00 0.00 0.00 83 1009.7
20260507103404 27 52 1.6 4.8 0.00 0.00 0.00 83 1009.6
20260507102920 27 357 0.0 8.0 0.00 0.00 0.00 83 1009.5
20260507102407 27 64 3.2 4.8 0.00 0.00 0.00 82 1009.5
20260507101904 27 337 1.6 3.2 0.00 0.00 0.00 81 1009.4
20260507101404 27 332 0.0 1.6 0.00 0.00 0.00 82 1009.5
20260507100404 27 309 1.6 4.8 0.00 0.00 0.00 82 1009.5
20260507095904 27 319 1.6 4.8 0.00 0.00 0.00 82 1009.5
20260507095404 27 317 1.6 4.8 0.00 0.00 0.00 82 1009.4
20260507094404 27 25 1.6 4.8 0.00 0.00 0.00 82 1009.2
20260507093904 27 321 1.6 3.2 0.00 0.00 0.00 82 1009.3
20260507093404 27 312 3.2 8.0 0.00 0.00 0.00 82 1009.4
20260507092405 28 331 3.2 4.8 0.00 0.00 0.00 81 1009.3
20260507091904 28 344 3.2 4.8 0.00 0.00 0.00 81 1009.3
20260507091404 28 333 3.2 4.8 0.00 0.00 0.00 81 1009.3
20260507090904 28 345 1.6 8.0 0.00 0.00 0.00 81 1009.3
20260507090405 28 346 3.2 4.8 0.00 0.00 0.00 80 1009.3
20260507085903 28 341 1.6 4.8 0.00 0.00 0.00 81 1009.3
20260507085404 28 355 4.8 8.0 0.00 0.00 0.00 80 1009.4
20260507084904 28 349 1.6 4.8 0.00 0.00 0.00 80 1009.3
20260507084404 28 342 3.2 8.0 0.00 0.00 0.00 80 1009.3
20260507083904 28 312 3.2 4.8 0.00 0.00 0.00 79 1009.3
20260507083404 28 338 1.6 4.8 0.00 0.00 0.00 80 1009.3
20260507081904 28 61 3.2 4.8 0.00 0.00 0.00 81 1009.1
20260507081403 28 40 3.2 8.0 0.00 0.00 0.00 81 1009.2
20260507080904 28 52 3.2 11.3 0.00 0.00 0.00 81 1009.4
20260507080404 27 60 4.8 9.7 0.00 0.00 0.00 82 1009.4
20260507075904 28 53 4.8 9.7 0.00 0.00 0.00 81 1009.5
20260507075404 28 39 3.2 9.7 0.00 0.00 0.00 82 1009.6
20260507074904 28 59 4.8 11.3 0.00 0.00 0.00 81 1009.6
20260507074404 28 39 4.8 8.0 0.00 0.00 0.00 80 1009.7
20260507073904 28 327 1.6 4.8 0.00 0.00 0.00 80 1009.7
20260507073404 28 340 0.0 3.2 0.00 0.00 0.00 81 1009.8
20260507072904 28 349 0.0 4.8 0.00 0.00 0.00 82 1009.7
20260507072404 27 34 4.8 11.3 0.00 0.00 0.00 82 1009.8
20260507071904 28 46 4.8 12.9 0.00 0.00 0.00 81 1009.9
20260507070404 28 50 1.6 8.0 0.00 0.00 0.00 81 1010.0
20260507065904 28 58 3.2 8.0 0.00 0.00 0.00 81 1010.1
20260507065404 28 48 3.2 8.0 0.00 0.00 0.00 81 1010.1
20260507064404 28 18 4.8 11.3 0.00 0.00 0.00 80 1010.2
20260507063404 28 56 3.2 8.0 0.00 0.00 0.00 79 1010.3
20260507062904 28 323 1.6 12.9 0.00 0.00 0.00 80 1010.3
20260507062403 28 46 4.8 11.3 0.00 0.00 0.00 80 1010.3
20260507061904 28 35 4.8 9.7 0.00 0.00 0.00 78 1010.5
20260507061404 28 337 3.2 8.0 0.00 0.00 0.00 79 1010.5
20260507060404 28 28 1.6 8.0 0.00 0.00 0.00 78 1010.6
20260507055404 28 304 0.0 4.8 0.00 0.00 0.00 80 1010.7
20260507054904 28 61 1.6 4.8 0.00 0.00 0.00 80 1010.8
20260507054403 28 308 1.6 4.8 0.00 0.00 0.00 80 1010.8
20260507053904 27 312 1.6 4.8 0.00 0.00 0.00 81 1010.8
20260507053404 27 24 6.4 9.7 0.00 0.00 0.00 81 1010.8
20260507052904 28 62 3.2 4.8 0.00 0.00 0.00 80 1010.9
20260507052404 28 59 4.8 12.9 0.00 0.00 0.00 80 1010.8
20260507051904 28 19 3.2 4.8 0.00 0.00 0.00 80 1010.8
20260507051404 28 49 1.6 8.0 0.00 0.00 0.00 80 1010.9